Theta_e
307 308 308 308 308 308 308 308 308 309 309 309 310 309 310 310 310 311 311 311 311 312 312 312 313 313 313 313 313 313 313 314 314 314 315 317 316 316 317 317 317 314 313 313 313 314 315 315 314 314 318 320 318 321 319 320 332 337 333 325 324 329 329 332 327 319 318 318 319 319 316 316 316 318 316 315 317 319 319 318 317 315 314 315 315 314 314 315
308 308 308 309 308 308 308 308 309 309 310 310 310 311 311 311 311 312 312 313 313 313 313 313 314 314 314 314 315 315 315 315 314 315 316 318 318 318 318 316 315 313 313 313 314 314 317 318 313 316 322 321 319 320 321 321 324 333 332 324 329 336 332 330 325 318 316 316 317 318 317 315 316 316 315 315 318 317 316 317 316 315 315 314 314 313 313 315
308 308 309 309 309 309 309 310 310 310 311 311 311 312 312 312 312 313 313 313 313 313 313 313 313 313 314 314 315 316 316 315 315 316 317 318 316 317 317 315 314 313 313 313 314 314 316 318 313 317 322 319 321 322 324 323 321 331 329 324 337 339 330 326 322 319 317 315 317 318 317 316 317 317 315 315 317 316 316 316 315 316 316 315 315 313 313 316
309 308 309 310 310 310 310 310 311 311 312 312 312 312 312 313 313 313 313 313 313 313 313 313 313 313 313 313 313 315 316 316 317 317 316 315 315 315 315 314 313 313 313 314 315 314 315 315 313 318 320 319 324 323 326 326 321 325 324 326 338 331 324 325 323 322 318 315 317 318 317 317 318 317 315 316 317 316 315 316 315 316 315 315 316 312 312 316
309 309 310 310 310 311 311 311 312 313 313 313 313 313 313 313 313 313 314 314 314 314 315 315 315 315 314 312 312 314 318 318 316 316 315 314 314 314 314 314 314 313 313 315 316 315 315 313 312 317 319 319 321 320 326 328 322 323 323 326 332 324 320 323 324 322 318 317 317 318 317 316 316 316 316 316 316 316 315 316 316 316 315 314 314 311 311 315
310 310 311 311 311 311 312 312 313 313 313 313 313 313 313 314 314 315 316 317 317 318 318 318 318 317 316 313 312 315 318 318 315 315 315 314 314 314 315 314 314 313 313 315 316 315 315 314 314 318 318 317 318 318 321 321 319 322 323 324 326 322 319 320 321 319 317 317 317 318 317 315 316 317 318 317 316 316 315 315 315 315 313 311 311 311 312 319
311 311 311 312 312 313 313 313 314 313 313 314 314 315 316 316 317 318 319 320 320 320 320 320 320 319 317 313 315 320 320 318 317 318 317 314 314 315 315 314 314 313 312 314 315 315 317 315 315 319 319 318 318 318 317 315 317 322 323 324 323 321 320 320 319 318 318 316 316 317 316 315 316 316 318 317 316 316 315 314 313 311 310 309 311 312 313 314
313 313 313 312 313 313 314 314 314 314 315 316 316 318 319 319 319 320 321 321 321 321 321 320 319 318 317 314 318 323 321 319 318 318 319 318 317 315 315 315 314 313 313 314 315 315 316 316 316 316 317 318 317 317 317 315 319 322 322 323 320 319 320 320 318 318 318 316 315 315 315 315 314 315 316 315 315 315 314 314 314 312 311 312 313 312 311 310
315 315 314 314 314 314 314 315 315 316 317 318 319 320 320 320 321 321 321 321 321 321 320 319 318 316 315 313 316 320 319 318 318 318 319 319 319 316 315 315 313 314 313 315 315 313 315 318 318 315 317 318 315 316 316 315 318 320 319 319 317 316 317 317 316 316 316 315 313 313 315 314 313 315 315 315 316 315 314 315 315 313 313 314 312 308 308 309
315 315 315 315 315 315 316 316 317 318 319 320 320 320 321 321 321 322 322 321 320 320 319 318 316 315 314 312 316 319 318 319 319 320 320 319 318 315 314 314 314 314 314 315 314 313 315 317 316 314 317 318 315 315 315 314 316 315 315 315 315 315 315 315 315 315 314 313 313 313 315 313 313 315 314 317 319 315 314 316 314 312 312 312 309 308 307 308
315 315 316 315 315 316 317 318 319 320 320 321 321 321 321 321 321 321 321 321 320 319 317 316 315 314 314 314 317 320 318 319 318 319 319 317 315 314 314 315 315 314 314 315 314 314 315 315 314 313 316 316 314 315 314 314 314 314 313 315 317 316 315 315 315 314 312 313 315 314 315 314 313 315 315 316 316 313 314 316 314 312 311 309 308 309 308 308
315 315 316 316 316 318 318 319 321 321 321 321 321 321 320 320 320 320 320 320 320 318 316 315 314 314 315 316 319 319 318 318 318 317 317 315 314 314 314 316 316 315 314 314 315 316 316 315 314 315 317 315 314 315 314 313 314 314 314 314 318 317 315 316 314 313 312 313 316 314 315 317 315 316 317 316 314 313 314 315 314 312 310 308 310 309 307 307
316 315 316 316 317 319 319 320 321 321 321 320 320 320 319 319 319 319 319 319 318 317 315 315 314 313 317 320 319 317 317 318 318 317 316 316 316 315 315 316 317 316 315 315 315 315 315 315 315 316 316 316 317 315 312 314 313 314 314 313 315 316 317 317 314 313 312 313 316 314 316 322 321 318 316 314 312 313 314 314 313 310 308 308 310 307 307 306
316 316 316 317 318 319 320 322 322 321 321 320 320 319 319 318 319 319 319 318 317 315 314 313 313 313 317 322 319 316 317 317 317 318 317 317 317 317 317 317 317 316 316 316 315 314 314 315 314 314 314 315 317 313 314 317 317 314 312 315 316 315 320 322 315 314 315 314 314 313 316 322 323 320 318 314 310 312 315 313 310 308 308 309 308 307 306 305
316 316 316 316 318 320 321 322 322 321 321 321 321 320 319 318 319 319 319 318 315 313 313 312 313 315 317 319 316 315 316 316 318 318 317 318 317 316 316 317 317 316 315 315 315 314 314 314 315 316 315 314 315 317 319 322 324 319 313 322 324 316 321 324 316 316 317 315 312 313 318 319 318 320 320 315 310 312 314 312 309 309 309 308 307 306 305 304
316 316 316 317 319 320 322 323 322 322 322 322 322 321 319 319 319 319 319 316 313 313 316 315 315 316 317 318 316 314 315 316 317 317 317 317 316 316 315 316 315 314 314 313 314 314 313 315 315 316 316 313 315 323 324 323 329 326 316 322 327 319 318 320 318 318 316 314 312 313 317 318 318 320 321 318 313 313 313 311 309 309 309 307 306 305 304 303
316 316 316 317 319 321 322 323 322 322 322 322 322 322 320 319 320 320 318 314 313 315 316 316 316 316 317 316 315 316 316 314 315 316 317 315 316 316 314 314 313 312 313 312 312 313 312 314 313 314 316 315 317 322 323 321 324 326 319 318 322 319 316 317 321 319 315 314 314 313 315 315 317 319 319 317 313 312 312 312 310 309 307 306 305 303 303 302
316 316 316 318 319 321 322 322 322 321 321 321 321 321 320 320 321 319 317 315 314 315 315 315 315 319 321 317 316 317 315 314 315 316 316 315 316 315 313 313 311 311 313 313 313 313 313 316 317 318 316 314 316 317 320 321 322 326 324 320 321 320 317 317 319 319 318 317 317 318 318 317 317 317 317 314 312 313 314 313 310 308 306 305 304 303 302 302
316 316 316 318 319 320 321 322 321 321 320 320 320 320 320 321 320 317 315 316 318 320 321 318 317 324 325 318 315 315 314 315 316 315 315 315 315 314 313 312 313 314 316 317 316 314 316 319 319 319 317 315 315 315 317 319 320 322 322 320 322 321 320 318 316 318 318 316 319 320 319 319 318 319 317 313 313 315 315 313 309 307 306 304 303 303 303 302
316 315 316 318 319 319 321 321 321 320 320 320 320 320 322 326 325 321 318 319 321 323 323 320 318 320 320 317 316 315 315 315 314 314 313 313 314 314 313 312 315 317 318 323 321 314 315 319 318 318 319 317 315 313 314 314 315 316 316 318 319 319 319 317 317 319 317 316 323 322 319 321 321 321 316 311 316 317 313 312 308 306 305 304 303 303 302 302
316 316 317 318 318 319 321 321 320 320 320 320 320 319 322 325 326 324 322 322 319 316 319 319 315 316 317 316 315 314 316 316 314 313 312 313 314 315 316 314 316 318 318 323 321 314 313 317 319 320 319 317 315 313 312 312 312 313 315 317 318 318 318 317 318 320 316 316 324 322 318 321 321 318 312 310 316 315 310 309 307 305 305 303 303 303 302 302
315 316 317 318 319 319 320 320 319 320 321 320 318 315 316 316 317 316 318 323 320 314 316 317 314 316 316 315 316 315 318 320 318 315 313 312 313 316 317 316 318 320 319 318 317 315 315 317 319 318 316 314 314 313 312 313 314 315 317 317 319 321 320 321 321 320 317 315 325 325 318 321 321 314 309 309 311 309 307 308 306 305 304 303 303 303 302 301
315 316 317 319 319 319 320 320 320 321 321 319 317 315 313 312 313 311 313 322 322 317 317 318 317 317 317 316 316 316 318 320 320 319 314 312 314 317 317 316 318 319 318 317 318 319 319 320 318 315 313 313 314 315 315 316 317 318 319 319 321 321 320 324 325 323 320 316 322 323 318 322 320 312 309 308 307 306 305 305 305 305 304 304 303 302 301 300
315 316 318 319 318 319 321 321 320 321 321 319 318 316 314 313 312 311 314 320 321 320 318 316 316 318 319 316 314 316 319 319 320 319 314 313 315 316 316 316 317 318 319 317 318 319 320 321 317 314 315 316 316 317 317 318 319 322 323 320 321 321 321 324 324 323 323 322 320 317 321 329 324 316 312 309 307 306 305 304 304 304 303 303 302 301 301 300
316 316 318 319 319 320 321 321 321 321 320 318 318 317 316 314 311 310 317 321 322 323 319 314 316 318 316 313 313 316 317 318 319 317 312 312 315 316 316 315 316 319 318 316 317 318 318 318 316 316 318 318 318 319 320 320 320 323 326 323 321 322 323 323 322 321 324 328 322 315 324 336 331 320 313 309 308 307 306 305 304 304 303 302 301 301 300 300
317 317 318 319 319 320 321 321 321 321 321 319 318 318 317 316 313 311 318 325 326 326 322 317 317 316 312 312 314 315 319 319 314 312 312 312 313 315 317 317 317 318 318 317 318 318 318 318 317 319 322 321 321 322 324 322 321 323 326 326 323 321 322 323 321 321 325 327 321 316 323 331 330 323 314 309 309 307 306 305 304 303 303 302 302 301 300 299
317 317 318 319 320 321 322 322 322 322 323 322 319 318 318 317 313 311 318 328 329 326 323 317 315 315 312 311 311 316 324 320 311 310 312 312 311 311 315 319 318 317 317 318 321 322 321 319 318 319 321 324 322 322 324 322 323 327 326 327 329 324 324 325 321 321 325 323 322 323 321 321 324 323 313 309 310 308 306 305 304 303 302 302 302 301 300 299
318 317 318 319 320 321 321 322 322 322 323 322 319 319 319 316 313 313 322 331 329 323 319 315 312 312 311 309 311 315 316 314 314 313 309 309 311 312 315 319 320 320 317 317 324 326 321 319 321 321 320 323 323 323 325 322 324 329 324 322 327 325 324 326 321 322 321 317 322 326 319 318 324 322 311 310 313 310 307 306 304 303 303 302 301 300 300 299
318 317 318 319 320 320 321 322 322 322 322 320 320 320 318 314 313 316 325 331 327 318 316 313 311 312 312 311 313 313 309 309 314 313 309 311 311 312 315 317 318 317 314 315 323 324 319 317 321 323 322 322 325 326 326 323 322 325 320 320 326 326 324 323 322 323 322 318 322 324 319 318 326 323 312 311 316 313 307 305 304 303 303 302 301 300 299 298
317 318 319 319 320 320 320 321 321 321 321 320 321 320 315 315 318 322 328 329 323 319 314 313 314 314 313 313 313 313 310 311 312 312 312 313 312 312 312 312 314 318 319 320 322 321 317 314 316 321 321 324 326 321 319 321 318 318 320 324 329 329 327 326 324 323 321 322 324 324 320 317 323 327 317 312 316 313 307 305 304 303 302 301 301 300 299 298
317 318 320 320 320 321 320 321 321 320 320 321 320 318 317 320 324 327 328 324 320 320 315 314 316 313 313 317 317 313 311 312 312 313 314 313 314 315 312 312 316 321 323 323 322 321 318 314 317 320 319 320 321 317 315 318 318 320 324 326 327 329 329 327 325 323 322 325 327 324 318 315 320 326 319 313 311 308 306 305 304 303 302 301 300 299 298 297
318 319 320 320 320 321 320 321 320 320 320 320 319 320 322 324 325 326 326 324 324 322 318 318 316 314 316 319 319 316 314 314 312 314 317 316 317 316 316 319 320 321 323 324 324 323 321 320 320 318 316 317 320 319 318 319 319 321 324 323 324 326 324 323 324 323 322 323 322 320 318 316 320 319 313 310 308 307 306 304 302 302 301 301 300 299 298 297
320 319 320 320 320 320 320 320 320 320 320 319 319 324 325 325 325 324 325 327 326 320 319 321 319 319 319 319 320 319 316 316 314 313 317 317 317 317 318 321 320 319 321 323 322 322 324 325 319 315 316 318 321 321 320 322 320 318 320 323 325 323 323 326 324 319 319 321 317 316 316 319 322 315 308 306 306 305 305 303 302 301 300 300 300 299 298 296
319 319 319 319 318 320 320 319 320 320 319 318 322 326 324 324 324 322 323 325 324 320 320 321 321 320 320 320 323 322 318 319 316 314 317 316 317 321 321 319 317 317 320 320 320 321 324 326 323 319 318 318 318 318 323 328 321 316 320 322 322 325 326 327 326 320 321 323 317 313 316 323 324 313 304 304 303 302 303 302 302 301 300 300 299 298 297 296
318 318 318 318 318 319 319 319 319 319 318 319 323 324 323 324 324 323 325 324 322 322 318 320 323 321 321 324 325 322 319 321 318 315 319 319 320 326 327 324 320 318 320 321 321 321 320 324 327 321 315 316 317 318 324 329 322 317 318 319 319 324 324 321 323 323 322 323 320 318 319 318 315 307 302 303 302 301 302 301 301 301 300 300 299 298 298 297
315 315 316 316 317 318 318 318 318 317 318 321 323 323 322 323 324 325 326 322 321 323 319 322 325 323 325 328 326 322 317 319 320 318 319 321 322 326 327 328 323 317 318 321 322 321 317 322 324 316 314 317 318 318 319 323 323 317 315 319 320 320 319 320 322 319 317 320 321 321 319 312 309 307 303 303 303 302 302 301 301 301 300 300 300 299 299 298
313 313 313 314 316 318 317 317 317 316 319 322 322 321 320 321 323 324 324 319 319 323 322 324 325 324 326 326 326 324 319 319 321 320 323 322 320 322 323 322 319 317 318 319 321 321 317 321 322 317 318 318 313 314 316 316 319 319 319 321 318 316 319 323 325 321 319 321 319 320 320 315 314 314 305 302 305 303 302 302 301 301 301 300 300 300 299 298
312 311 312 312 314 317 316 316 316 316 320 322 321 321 321 321 321 320 321 319 318 321 323 324 324 323 324 324 325 324 319 320 321 321 325 323 319 322 322 318 316 317 318 315 318 321 316 319 322 317 318 318 313 315 318 314 313 318 321 318 316 319 323 322 322 323 321 320 320 323 321 316 316 315 308 305 306 303 302 302 301 301 301 300 300 300 299 298
310 313 315 313 312 315 316 317 316 316 320 321 320 320 321 321 321 320 321 319 319 320 322 324 323 321 322 323 325 323 319 321 322 320 322 321 319 319 317 318 316 317 320 317 317 322 318 317 321 316 314 316 315 316 321 319 313 314 316 315 316 320 322 320 319 322 322 318 319 323 320 319 320 316 312 309 305 302 302 302 301 301 300 300 300 299 298 297
309 315 317 311 310 313 315 315 316 317 320 320 319 319 319 319 320 322 320 317 318 320 321 323 322 321 322 321 322 322 321 323 323 320 320 320 319 318 317 320 318 316 320 318 316 320 318 316 321 319 315 315 318 318 322 324 318 315 317 317 316 316 318 319 317 319 322 321 321 320 316 321 323 314 310 308 304 302 302 301 302 301 300 300 299 298 298 297
309 316 315 309 308 311 313 315 317 318 320 320 319 319 318 318 318 320 319 316 318 319 319 322 323 321 321 320 320 320 320 322 322 319 320 319 319 318 317 320 320 317 317 317 317 319 318 318 321 321 317 319 323 320 318 322 323 322 321 320 319 318 319 319 316 318 319 319 322 319 315 321 318 309 307 306 304 303 302 301 302 302 301 300 299 298 297 296
310 316 312 307 308 310 313 316 316 316 318 319 318 317 316 316 317 318 318 317 317 317 317 319 320 321 320 319 320 320 320 321 320 319 320 319 318 317 315 314 317 317 317 320 320 318 318 321 321 319 319 320 320 315 313 318 320 319 319 318 319 320 320 319 318 320 319 317 318 317 317 319 312 305 306 306 304 303 302 302 303 302 301 300 299 298 296 295
311 312 308 306 308 310 312 315 315 315 317 316 315 315 314 314 316 316 316 317 317 317 317 317 317 319 319 318 319 319 320 320 319 319 319 318 317 316 314 314 314 315 318 319 319 316 315 318 319 318 321 320 315 313 315 316 315 315 316 317 317 317 319 319 318 319 320 318 317 317 318 317 312 307 306 305 304 304 303 304 304 303 300 299 298 297 295 295
308 308 306 306 307 309 312 315 314 314 315 313 313 313 313 313 314 314 315 316 317 318 317 316 316 317 317 318 318 318 319 318 317 317 317 319 317 311 311 315 313 312 316 316 317 317 315 317 319 318 319 319 315 315 317 317 316 317 318 316 315 315 316 315 315 315 316 316 316 316 316 316 313 308 305 304 305 305 303 303 303 302 300 298 297 296 295 295
305 306 306 306 306 307 310 312 313 314 314 313 313 313 312 312 312 313 314 314 315 317 317 316 316 316 316 317 317 316 317 317 317 317 316 318 317 311 310 313 311 312 315 314 314 316 315 316 317 316 317 318 316 315 317 318 316 315 315 313 312 313 314 314 314 314 314 315 315 314 315 314 310 307 306 305 305 305 304 303 301 301 299 297 297 296 295 295
306 307 306 305 305 307 308 308 310 313 313 313 313 313 312 313 312 311 313 313 313 314 315 316 316 315 315 316 316 316 316 315 315 316 317 319 318 313 311 310 309 312 313 311 313 316 316 315 315 315 316 314 314 315 314 314 315 314 313 312 311 312 312 312 313 313 313 313 313 312 312 312 309 308 308 306 304 305 306 306 303 301 299 298 297 296 295 295
305 306 306 306 307 307 307 307 309 311 311 312 312 312 312 312 311 311 311 312 313 313 314 315 315 314 315 315 315 315 315 315 314 314 316 318 316 311 308 307 307 310 309 308 310 313 313 313 313 315 315 312 312 312 311 311 313 313 312 312 311 310 310 311 311 311 311 312 311 310 309 309 309 307 307 307 306 306 307 307 305 303 301 298 297 296 297 297
303 304 304 304 306 307 308 308 308 309 310 311 311 311 311 311 311 310 310 311 312 312 313 314 314 314 314 315 314 314 314 314 314 313 314 316 314 310 309 307 307 308 307 306 307 310 313 314 313 314 314 311 309 309 309 309 310 310 310 311 311 309 308 308 308 309 310 310 309 309 308 308 308 305 305 306 307 307 307 305 304 303 300 298 297 297 298 298
300 301 300 300 302 304 305 307 308 308 309 310 309 310 310 310 310 309 309 311 312 311 311 312 312 312 313 314 314 313 313 313 313 313 313 314 313 312 311 311 308 306 306 307 308 308 311 313 311 311 313 310 306 306 308 307 306 306 306 307 307 306 304 305 305 306 307 307 306 306 306 305 304 303 302 305 307 306 303 301 302 302 299 297 297 298 298 297
299 300 300 300 300 301 303 306 308 308 308 308 308 309 308 308 308 307 308 311 312 312 312 311 311 312 312 313 313 312 312 312 312 312 312 312 312 311 312 312 310 306 305 307 308 307 309 310 307 307 310 307 303 303 305 304 303 302 303 303 302 301 301 302 302 302 303 303 303 303 303 302 301 301 301 301 301 299 299 299 300 299 297 297 297 297 297 295
296 297 298 300 301 301 302 304 306 307 307 306 307 307 306 307 307 306 307 310 311 313 313 311 311 311 310 310 311 311 311 311 311 309 308 309 309 308 309 310 308 307 306 305 306 306 308 308 305 306 309 306 301 300 302 301 300 301 301 300 299 298 299 299 300 300 300 301 300 300 301 301 300 300 298 297 296 297 298 298 296 294 294 294 294 295 294 294
295 295 296 298 300 301 301 303 305 305 306 305 305 305 305 306 306 306 306 308 309 309 309 311 311 310 309 309 309 308 308 308 307 304 303 305 304 304 306 307 305 307 306 304 304 306 306 307 306 306 308 305 300 300 301 301 302 302 301 300 299 298 298 298 298 299 298 298 299 300 299 298 299 299 297 296 296 296 296 295 293 292 293 293 293 294 294 294
Wind_Speed
2 2 2 3 3 3 3 3 3 3 4 5 6 6 6 6 6 7 7 8 9 10 10 11 11 12 13 14 15 17 18 19 19 17 12 12 8 5 5 5 4 3 5 7 8 7 5 3 2 3 3 3 2 1 2 2 2 4 3 3 1 3 3 5 6 4 2 3 6 6 2 3 5 5 3 3 2 4 6 7 6 5 6 9 11 11 9 6
2 2 2 2 2 3 3 3 4 4 4 5 6 6 7 7 7 8 8 9 9 10 11 11 12 12 13 13 15 16 18 19 18 16 11 6 2 6 4 2 2 3 6 8 9 9 6 2 2 4 4 2 2 2 2 2 2 3 3 2 3 5 5 5 6 4 2 4 6 6 3 3 4 3 2 3 6 5 6 10 7 8 10 10 14 14 10 7
2 2 2 2 3 3 4 4 4 5 5 6 6 7 8 8 9 9 9 10 10 11 11 12 12 12 12 13 13 14 16 16 12 8 3 4 7 7 4 2 2 4 6 6 8 9 6 3 6 6 4 2 1 2 2 1 0 2 4 2 6 7 5 5 6 6 5 5 5 6 3 3 5 3 1 4 7 6 6 10 8 10 12 8 9 9 7 7
3 2 2 2 2 3 4 4 5 5 6 6 7 8 9 9 9 10 10 11 11 11 11 11 11 11 11 11 10 10 11 9 4 2 3 6 8 7 5 3 3 5 7 5 6 7 3 2 5 5 4 1 3 3 1 3 1 1 4 5 7 4 3 7 8 7 6 3 3 6 5 7 6 2 1 4 8 8 7 8 8 11 14 10 8 6 5 7
3 2 2 2 2 3 3 4 4 5 6 6 7 8 9 9 10 10 11 11 12 12 11 11 10 10 10 10 8 8 6 5 2 2 4 6 7 7 5 4 4 6 9 7 4 5 4 2 5 4 3 1 2 3 2 5 3 2 3 6 6 4 3 8 7 5 4 3 5 7 6 7 3 1 2 2 5 9 8 7 9 11 11 11 9 6 4 7
2 1 1 2 2 3 3 3 4 4 5 6 7 8 8 9 9 10 10 11 12 12 12 11 11 10 9 8 6 4 2 0 3 2 4 6 5 5 4 2 3 6 10 8 3 3 3 3 4 2 2 1 2 3 4 3 4 3 4 4 6 6 5 6 4 4 4 4 6 5 4 3 3 5 4 5 10 11 11 9 8 10 13 13 9 7 6 6
3 1 1 2 2 2 3 3 4 4 5 6 7 7 8 9 9 10 11 12 12 12 12 11 11 10 8 5 3 3 2 4 6 4 6 5 5 4 2 2 3 6 11 10 4 3 3 4 2 4 4 0 3 5 4 1 3 5 5 5 6 6 7 7 5 6 5 5 8 3 5 6 5 6 2 7 12 13 14 10 6 10 15 14 9 6 7 7
5 3 2 2 2 2 3 3 4 4 5 6 7 8 8 9 10 11 11 12 12 12 12 11 10 9 6 2 0 3 2 7 8 6 8 8 8 7 4 4 5 8 11 11 6 4 4 4 4 3 3 2 3 3 3 1 1 5 6 5 4 3 6 8 6 7 8 8 6 3 8 10 8 4 4 12 16 15 13 7 6 7 8 10 8 7 6 7
6 3 3 2 3 3 3 3 4 4 5 6 7 8 8 9 10 11 11 12 12 12 12 11 9 7 4 0 4 2 4 7 7 7 7 8 8 8 7 6 6 9 10 9 7 5 4 5 5 4 4 4 4 3 2 0 2 5 6 4 3 5 6 6 6 8 8 6 2 2 12 13 5 2 6 13 16 14 9 6 7 4 6 7 7 9 9 9
6 4 3 3 3 3 3 3 4 4 5 6 7 8 9 10 10 11 11 12 13 12 12 10 8 4 3 2 5 0 5 5 6 6 5 7 8 8 8 6 7 10 8 5 5 5 4 5 4 4 5 2 3 3 1 3 3 4 3 4 5 6 7 4 6 10 7 5 4 5 13 13 3 2 5 10 12 7 7 8 8 7 7 7 9 9 10 12
7 4 4 4 3 3 2 3 4 4 5 6 7 8 9 10 11 12 12 12 12 12 11 9 7 4 3 4 4 4 5 5 7 5 4 6 6 6 7 6 6 9 8 3 4 5 4 6 5 5 2 1 2 2 2 3 2 1 1 6 8 7 7 6 8 10 4 4 5 8 8 9 1 3 7 12 10 3 7 10 9 8 6 8 10 9 10 11
7 5 4 4 3 3 2 3 4 4 5 7 8 9 10 11 11 12 12 12 12 11 10 8 5 4 3 2 5 9 8 7 8 5 4 5 5 5 6 6 5 7 8 4 2 4 4 5 6 5 3 2 1 2 3 3 1 2 3 5 9 8 8 11 10 6 2 3 4 8 3 7 2 7 12 13 8 6 7 9 7 7 7 9 9 9 9 11
6 5 4 4 3 3 3 3 3 4 5 7 8 10 11 12 12 12 12 12 12 11 9 6 3 5 3 1 5 10 12 10 9 6 5 5 4 5 5 6 6 6 7 5 3 3 3 4 6 4 3 4 1 2 0 1 2 4 2 1 6 7 7 10 5 0 1 3 6 7 1 6 7 11 12 11 6 6 8 6 7 7 8 8 7 8 8 11
6 5 5 4 4 4 4 3 3 4 6 8 9 10 12 13 13 13 13 12 10 10 8 4 3 5 3 4 5 6 9 9 9 8 6 6 5 4 6 7 6 5 5 4 3 3 3 2 4 3 1 3 1 3 3 5 3 3 2 0 2 2 6 9 3 0 4 3 6 7 3 6 9 11 12 9 3 3 6 5 8 7 7 7 6 8 8 11
8 6 6 5 5 5 4 3 3 5 7 9 10 11 12 13 14 14 12 10 8 6 4 2 3 4 0 6 6 5 6 7 9 10 8 7 6 4 6 8 6 4 3 2 3 2 2 2 3 2 1 1 2 3 4 4 3 2 1 3 2 3 5 10 7 4 3 3 4 6 3 5 8 11 13 8 1 0 4 6 8 7 8 7 6 7 7 8
8 7 6 6 6 6 5 3 3 6 8 10 11 11 12 13 14 13 9 6 5 3 3 2 3 3 1 4 2 1 4 6 8 10 9 8 6 4 5 6 4 4 3 2 3 2 2 3 1 2 1 1 2 4 3 4 4 2 1 4 3 3 3 6 7 3 5 2 2 3 3 3 6 8 11 10 5 4 5 6 8 7 7 7 6 6 6 6
7 7 7 6 6 6 5 3 4 7 9 11 12 11 11 13 13 10 7 4 1 1 2 1 2 1 2 3 1 2 4 6 7 8 9 7 6 6 6 5 3 4 4 3 3 2 2 2 1 0 1 1 3 5 3 2 4 3 1 3 4 4 3 2 6 5 1 3 1 3 3 5 8 8 11 12 8 8 7 5 8 7 7 7 6 7 7 7
8 8 8 7 6 6 5 4 5 8 9 11 12 12 11 12 10 6 4 3 1 2 2 1 3 1 3 3 2 3 3 5 6 8 9 7 6 8 5 4 4 6 5 3 2 2 2 2 2 0 2 1 3 5 3 5 6 4 3 3 4 4 4 4 5 5 5 4 2 4 5 8 9 9 11 11 8 7 5 6 8 7 7 6 6 7 7 8
9 8 8 7 6 5 4 3 5 7 9 10 10 10 9 7 4 0 2 3 2 1 1 2 3 2 3 3 3 2 2 5 6 7 9 7 8 8 4 4 5 6 3 1 2 0 2 3 4 1 2 4 6 7 9 10 8 7 6 4 4 4 5 6 6 5 3 4 5 6 7 7 7 9 9 6 4 3 3 8 7 6 7 6 7 7 7 9
9 9 8 6 4 4 3 3 4 6 8 9 8 7 4 2 2 1 0 1 4 5 2 4 6 4 5 3 1 3 3 5 4 5 8 9 9 7 3 3 5 4 2 3 2 1 3 3 2 4 7 9 11 12 13 10 5 3 3 3 5 5 6 6 7 7 1 1 6 5 5 6 7 10 8 4 4 4 5 8 7 7 6 6 8 8 8 9
10 9 7 4 4 4 2 3 4 5 6 7 7 4 1 2 1 2 2 3 7 10 7 8 10 9 10 6 4 6 3 1 3 3 8 9 9 7 1 2 4 0 2 4 2 1 3 5 7 9 12 12 11 11 10 7 4 3 4 5 5 5 7 7 6 6 2 1 5 3 3 7 9 7 8 7 7 7 4 8 8 8 7 6 8 8 8 7
10 9 7 4 4 5 3 4 5 5 4 4 1 2 3 3 2 2 1 2 8 9 9 12 10 10 14 13 11 8 2 3 6 3 8 8 6 6 2 4 5 4 2 4 2 0 2 4 10 14 11 7 6 4 5 5 5 4 3 2 5 4 4 7 6 5 2 2 4 4 3 8 9 4 9 9 8 7 6 8 7 6 8 6 7 7 7 6
11 9 7 6 6 6 4 5 6 4 2 1 3 6 4 3 3 3 3 0 6 6 6 8 6 6 9 10 11 11 6 6 6 4 10 9 3 4 4 5 6 4 3 5 5 4 4 6 12 14 7 4 6 4 4 4 4 4 3 3 5 4 2 4 5 4 3 1 3 3 4 6 5 4 9 8 7 8 9 10 8 6 7 6 6 6 6 7
11 10 9 8 7 6 5 6 6 3 2 2 4 5 4 3 4 4 2 1 3 6 5 6 4 4 4 3 7 10 5 5 3 4 11 12 4 3 4 6 6 4 5 8 9 8 7 7 8 7 5 7 8 6 5 5 4 4 6 6 6 6 6 6 4 4 4 4 2 2 4 5 3 3 5 5 6 8 7 8 9 7 5 6 7 7 7 6
12 11 10 9 7 5 5 7 5 4 4 4 4 4 4 2 4 5 2 2 2 5 4 3 2 2 2 1 5 7 2 2 3 2 9 11 6 3 3 3 5 6 8 8 8 7 9 7 3 3 5 7 7 7 6 6 3 4 6 9 10 8 8 6 2 4 4 4 3 2 3 5 3 2 5 4 5 6 5 6 7 5 4 5 7 7 6 6
13 12 12 11 8 4 4 5 5 5 3 5 4 3 3 2 3 5 2 3 3 5 1 2 1 2 3 1 2 4 2 2 2 2 5 6 4 2 2 2 1 5 7 5 4 3 6 8 5 6 6 6 6 6 5 7 4 4 5 8 9 6 5 5 3 2 1 4 3 2 1 5 5 2 4 5 5 6 4 5 5 4 4 4 5 5 5 5
12 13 14 13 10 7 3 2 5 5 1 4 6 5 3 2 4 5 2 3 3 3 2 0 0 2 3 1 1 4 2 3 1 3 2 2 1 2 1 2 0 2 3 2 1 3 5 6 5 6 6 5 5 5 5 8 6 4 4 5 6 6 5 5 5 3 3 3 4 3 2 3 6 3 5 7 8 5 3 4 3 3 3 4 5 5 5 5
12 14 15 15 13 12 8 4 4 5 3 4 6 6 3 3 4 3 3 1 3 1 2 1 1 2 1 1 3 4 2 1 3 0 1 2 1 2 1 4 4 3 1 4 3 5 2 4 5 7 6 5 6 5 6 9 5 6 5 5 6 6 5 4 5 2 1 2 4 3 2 2 6 3 3 5 6 4 4 4 3 3 3 4 5 5 5 5
12 14 15 15 14 13 14 11 7 5 5 5 5 4 3 4 3 3 3 2 1 2 1 0 2 1 1 2 2 2 0 1 2 2 1 2 1 3 2 5 5 3 3 3 5 6 1 3 5 7 5 6 6 3 6 9 5 5 5 5 5 5 5 5 5 3 2 2 5 5 4 3 5 3 3 3 3 5 6 5 4 4 3 4 4 4 4 5
13 14 13 12 12 13 14 15 14 10 6 6 5 4 4 4 3 3 3 3 1 1 1 1 2 1 3 3 1 0 1 1 1 1 2 1 2 4 1 2 4 2 2 3 3 6 3 2 2 4 4 5 4 2 2 5 4 4 6 5 6 5 5 4 3 4 2 4 6 8 10 7 4 4 4 4 3 6 8 6 6 4 4 4 4 4 4 4
16 14 12 12 14 15 11 9 15 16 9 6 6 4 3 2 3 3 5 1 1 0 1 0 1 2 4 4 2 2 2 1 1 2 1 1 2 3 2 1 2 3 3 4 4 5 5 2 2 2 2 3 5 3 2 3 3 6 5 4 3 4 4 4 4 4 1 6 7 6 8 7 5 5 3 3 4 7 12 11 11 9 6 5 4 4 4 4
19 15 13 15 16 16 11 6 11 15 10 7 7 3 3 1 1 3 3 2 1 2 2 2 2 2 3 3 2 4 3 1 2 3 3 3 3 3 2 3 3 2 2 4 3 4 4 4 4 4 2 4 5 2 2 5 5 5 4 5 3 2 3 3 2 0 3 7 5 3 5 4 6 5 2 4 5 4 9 9 12 11 8 6 5 4 4 4
21 16 14 17 17 16 14 9 9 14 11 9 5 3 4 2 4 4 3 1 0 1 1 2 2 3 3 2 2 3 2 2 3 3 2 3 2 3 4 4 4 2 1 4 2 2 3 5 3 2 4 2 7 4 2 1 1 4 5 5 4 2 1 3 4 2 4 6 3 3 4 2 4 2 2 4 5 1 6 7 9 9 8 7 5 4 4 4
21 17 16 18 18 17 15 11 10 14 13 9 4 3 3 4 3 3 5 4 1 1 1 2 2 2 3 2 3 2 2 2 3 4 2 3 2 2 4 4 4 2 1 2 1 2 2 5 3 5 3 2 7 7 5 5 4 4 4 5 4 4 4 4 4 4 4 4 3 1 2 3 3 1 3 3 3 2 7 7 6 6 6 6 5 5 5 4
18 18 17 18 18 16 14 12 12 15 14 8 3 2 5 5 2 2 4 4 1 0 1 2 3 3 1 2 2 1 3 2 1 4 2 3 3 3 3 4 5 4 2 2 1 2 3 5 6 3 1 5 6 4 5 6 1 2 3 4 2 4 5 3 3 6 4 2 3 2 2 2 3 1 2 2 4 5 6 6 6 6 5 5 5 5 4 4
16 16 14 14 14 14 13 12 13 16 12 6 2 5 6 4 3 3 3 2 2 3 2 1 3 2 2 2 2 2 1 0 0 2 2 2 4 5 4 4 6 8 5 4 2 1 2 5 5 2 1 5 6 3 3 3 2 1 3 3 4 4 6 2 3 1 3 2 4 2 2 2 0 0 1 3 4 4 5 5 6 6 5 6 5 5 5 5
14 12 8 7 10 13 13 12 13 14 8 4 5 7 4 3 4 4 2 1 2 3 4 1 1 2 3 2 2 3 0 0 1 1 2 2 3 4 5 3 3 8 8 5 3 3 3 5 5 2 3 5 2 2 2 2 3 5 3 5 3 1 3 3 1 2 1 3 4 1 3 3 2 1 0 2 4 6 5 5 6 5 5 6 5 5 5 5
13 9 4 6 10 12 13 13 12 9 4 2 8 8 3 3 3 3 2 1 1 2 3 2 3 2 3 2 2 2 2 2 1 2 2 2 3 4 5 2 1 4 5 4 2 3 2 3 6 2 4 3 3 2 2 4 1 4 3 3 3 2 1 1 2 2 2 4 4 3 3 3 4 4 4 7 10 10 8 7 7 7 7 6 6 6 6 5
11 6 1 7 13 13 13 14 10 6 3 4 9 8 3 3 4 3 3 1 2 2 2 3 2 1 2 4 3 3 2 2 2 2 2 2 3 2 4 2 1 1 2 4 5 2 1 2 5 2 1 2 3 2 2 3 2 1 1 2 1 3 3 2 2 3 3 4 4 5 5 3 5 6 10 14 14 14 12 9 8 9 9 8 7 6 6 5
6 3 1 6 14 15 15 12 5 3 5 6 7 4 2 2 4 4 3 2 1 2 3 3 3 3 3 3 3 2 1 2 3 2 2 3 3 3 2 2 3 2 2 2 3 1 1 2 4 3 2 0 1 3 5 6 3 1 1 2 2 1 1 1 1 2 3 3 3 3 5 5 4 3 9 13 12 13 13 11 9 9 8 8 7 6 6 5
3 1 1 5 14 17 14 8 3 3 4 4 3 2 1 1 1 3 4 3 2 1 2 3 4 5 4 3 3 3 2 3 4 3 3 3 3 4 2 2 4 4 2 3 1 2 1 2 3 3 2 3 5 4 5 7 6 5 4 4 5 3 1 3 4 1 2 3 4 4 6 6 4 2 4 7 9 11 12 11 10 9 9 8 6 6 7 6
3 1 1 8 16 18 11 4 3 3 3 3 2 2 1 1 1 2 2 2 3 2 1 1 4 5 4 4 4 4 3 3 4 4 4 4 6 5 2 2 2 3 3 2 3 3 2 3 3 4 4 5 6 3 1 3 4 4 3 2 3 3 4 4 6 3 1 2 1 2 5 5 2 3 2 5 9 11 11 10 9 8 8 8 7 7 6 6
3 1 3 11 18 15 7 3 3 3 3 2 1 1 2 2 2 3 3 2 3 3 2 2 4 5 5 5 4 4 4 4 6 7 5 5 6 4 1 1 0 2 3 2 2 1 2 2 3 5 3 2 3 4 4 3 4 2 2 1 3 3 3 4 4 3 2 2 0 1 4 4 1 4 2 4 7 8 9 8 8 6 5 6 7 7 6 6
2 2 2 10 16 10 5 4 5 5 5 2 1 2 2 2 4 5 4 5 4 3 3 3 3 4 5 5 5 6 5 4 6 8 7 6 4 1 2 2 1 2 2 2 2 2 2 1 2 3 3 4 3 2 4 4 0 2 2 0 2 3 4 2 1 2 1 4 5 3 5 4 1 4 3 5 7 7 6 5 5 5 5 6 6 6 6 6
2 1 2 6 11 7 3 3 3 5 7 7 6 6 4 3 4 6 6 6 5 4 3 3 4 5 5 5 5 6 7 7 6 5 4 4 3 2 3 4 2 3 2 1 1 2 2 3 3 4 7 8 6 4 3 2 2 1 1 1 1 4 5 3 1 2 2 4 5 5 5 3 2 3 1 2 5 6 4 3 4 5 5 7 6 6 6 6
2 1 1 2 5 5 3 1 1 3 6 7 7 7 10 8 4 4 7 7 6 5 3 3 3 3 4 6 6 6 7 8 7 4 3 3 3 3 2 4 2 3 2 1 2 2 2 3 4 5 8 8 5 5 4 3 3 2 2 2 3 4 4 4 3 3 2 1 3 5 4 2 3 4 4 3 4 4 4 4 5 5 5 7 7 6 6 6
1 2 3 3 2 4 4 3 3 3 3 5 5 4 9 11 6 3 6 6 6 7 5 4 4 6 7 7 7 7 7 8 8 7 6 4 2 4 3 2 2 3 3 1 2 2 3 3 5 5 7 5 3 4 3 3 3 4 3 4 6 5 5 6 5 4 3 1 5 8 5 4 8 8 7 7 7 6 6 6 6 6 7 7 6 6 7 6
1 1 2 2 1 4 6 6 7 6 4 5 3 2 6 9 7 5 4 2 4 7 6 4 7 12 11 8 7 7 6 7 8 8 6 3 2 1 2 2 2 2 3 2 1 2 4 5 4 5 5 2 4 3 3 3 1 2 3 6 8 7 6 7 5 5 5 6 8 8 5 6 10 8 5 8 9 8 8 7 7 7 7 6 7 7 7 7
1 0 2 1 1 3 4 5 8 9 9 6 3 5 9 9 8 5 2 2 2 6 7 7 9 11 10 8 8 7 7 7 7 7 5 4 3 3 2 3 3 1 1 1 2 1 3 3 2 3 3 0 4 3 3 4 2 2 5 8 9 8 5 6 5 8 8 8 9 8 7 9 10 7 5 7 7 7 5 4 4 6 8 8 8 8 7 7
2 1 1 1 1 1 2 3 8 9 9 8 7 8 8 9 11 8 2 4 4 4 6 10 11 8 8 10 10 11 11 9 8 7 6 5 5 3 3 4 2 1 1 2 2 2 1 1 1 2 0 2 0 3 3 4 3 2 6 10 10 5 4 6 8 8 6 7 10 8 9 12 9 4 3 4 4 4 4 4 5 6 7 8 8 7 7 7
2 1 2 2 0 2 1 2 5 6 7 8 9 9 7 10 13 8 4 5 7 4 4 9 10 6 4 7 11 13 13 10 9 7 6 6 6 3 2 3 4 3 3 3 1 1 1 1 1 3 1 2 1 3 2 4 3 4 10 14 12 6 5 7 7 7 7 9 11 8 7 10 8 2 2 2 4 6 6 6 6 5 6 8 8 8 7 7
3 1 2 4 0 2 2 1 4 6 6 7 8 8 8 9 9 7 5 4 4 5 5 6 7 4 2 6 10 11 8 5 6 6 5 3 2 2 1 2 4 4 4 3 1 0 2 3 2 2 2 2 3 4 3 4 4 7 11 10 9 8 9 8 6 8 10 8 6 7 8 9 7 2 2 3 4 6 6 6 5 6 7 7 7 8 7 7
Wind_Direction
2 356 354 3 352 346 348 346 350 350 358 357 351 350 347 345 343 346 343 339 338 334 336 334 335 333 328 329 327 327 326 323 321 315 301 298 294 227 232 261 270 239 186 175 169 156 128 115 133 104 85 58 14 355 359 353 66 54 82 115 220 199 204 194 194 197 163 273 278 309 316 193 277 303 309 319 342 308 300 291 273 281 270 248 259 278 305 297
342 333 334 341 331 338 339 334 342 345 350 352 349 344 342 340 337 340 338 337 336 333 335 334 334 330 327 327 325 327 324 321 318 307 299 298 179 158 190 227 234 207 185 182 184 168 133 150 186 101 62 44 336 6 5 324 84 93 117 146 227 203 215 200 198 217 188 251 273 295 269 215 256 276 336 312 294 316 314 291 291 294 279 269 270 273 287 263
330 322 325 325 328 338 333 335 341 343 346 348 345 341 341 339 337 338 335 334 333 333 333 332 331 327 326 323 324 329 323 323 318 304 317 122 135 131 134 165 188 186 194 193 195 183 145 152 164 127 61 35 297 35 52 326 201 164 127 177 241 218 234 248 235 239 229 231 274 292 272 275 272 243 319 310 295 295 276 275 288 292 284 280 268 268 274 229
328 331 334 324 332 333 332 337 340 347 347 345 345 342 340 339 340 339 336 335 332 332 331 331 329 325 326 323 326 326 327 337 315 271 120 129 131 125 129 150 160 178 196 190 187 193 178 156 155 131 80 35 308 36 131 246 224 182 144 193 234 205 231 262 253 251 245 218 277 296 317 305 280 224 284 328 317 296 266 252 245 263 280 287 278 269 242 206
326 345 344 316 320 327 329 334 341 351 347 345 345 341 342 340 340 340 338 335 333 333 333 334 330 328 328 325 326 320 344 19 287 218 143 143 136 138 138 137 153 185 193 183 176 190 205 154 114 87 76 165 322 47 235 233 148 168 216 214 228 182 216 262 255 258 281 338 325 310 303 292 295 314 261 256 282 276 272 253 236 246 265 278 286 284 231 200
315 337 323 296 304 313 319 329 337 344 343 343 342 342 343 338 338 338 338 336 334 335 334 336 333 332 331 326 325 324 33 23 256 200 174 170 158 161 150 147 168 197 198 196 205 184 179 99 90 110 96 159 198 184 245 244 146 214 267 247 241 224 234 266 271 298 337 338 297 285 283 301 352 308 257 226 246 255 267 261 251 262 268 277 288 286 259 226
314 306 274 272 286 295 308 321 331 338 339 340 342 345 341 336 338 337 337 336 334 334 333 334 331 329 329 323 324 21 77 248 259 228 221 210 207 214 206 231 215 205 200 202 214 175 134 88 130 162 111 20 213 208 246 271 168 208 259 274 258 235 235 256 280 301 307 264 253 263 313 308 293 295 292 255 259 260 268 271 261 266 278 290 295 281 280 281
319 310 283 271 279 292 308 320 332 337 337 341 344 344 338 335 336 334 335 333 331 331 330 331 329 328 326 310 136 20 350 254 267 257 248 246 240 238 239 244 225 211 199 201 204 170 139 131 183 168 118 232 193 201 255 321 211 208 233 268 279 257 246 262 277 280 275 261 256 295 295 275 251 270 293 270 271 272 275 294 281 269 292 301 309 323 338 339
311 305 294 285 282 292 307 316 327 333 335 340 340 338 335 333 333 331 330 330 330 328 328 329 327 323 303 192 98 29 270 253 281 278 262 254 241 234 237 237 220 210 195 204 205 164 162 180 206 190 177 214 179 207 265 287 256 219 215 246 275 281 278 282 282 272 272 262 222 289 281 277 260 236 270 263 260 271 298 320 299 324 334 320 346 10 29 31
299 293 280 272 271 286 305 316 324 329 332 335 335 334 332 330 328 326 326 327 327 326 328 328 323 315 247 161 100 197 260 270 296 288 264 244 234 231 231 227 217 210 197 202 201 175 176 198 201 157 157 175 175 216 178 157 224 221 224 269 265 276 279 265 266 272 282 271 223 226 269 280 289 196 267 264 250 275 338 313 310 2 354 3 40 43 44 44
289 282 265 259 262 281 298 313 322 328 331 334 334 332 330 327 325 322 323 323 324 326 328 326 317 288 212 158 146 219 258 276 287 286 247 230 227 225 217 214 211 209 209 197 192 199 211 212 173 120 151 193 171 261 261 199 234 269 318 313 300 313 305 272 266 271 284 283 218 178 255 289 343 197 244 256 257 337 346 303 327 15 26 53 63 56 47 43
276 267 259 255 262 280 287 299 318 329 331 335 332 331 330 325 323 320 319 320 321 324 325 327 305 239 187 152 210 236 252 263 271 268 230 207 188 196 200 207 211 213 222 209 165 184 200 204 155 139 222 176 131 298 255 219 342 326 21 334 305 336 321 280 272 265 196 250 187 140 285 309 233 220 240 253 273 353 327 305 350 30 55 67 64 57 51 40
272 260 258 254 258 269 275 290 317 327 329 333 329 329 328 322 320 318 318 318 319 322 324 325 274 208 180 258 241 245 254 256 260 256 236 202 173 197 208 210 212 218 227 211 172 138 145 194 164 170 191 129 205 265 158 37 14 313 359 21 304 342 313 277 270 354 260 227 168 138 266 287 254 246 253 265 299 337 309 319 17 43 67 68 61 61 55 41
272 263 254 252 253 258 270 291 314 326 331 326 323 325 324 319 315 314 317 317 319 324 327 328 224 183 171 255 268 275 259 246 244 243 242 231 210 215 212 201 199 208 222 205 174 121 100 165 142 129 136 130 230 303 351 2 6 307 311 329 313 307 277 287 283 43 319 262 156 144 207 257 267 273 273 279 305 307 299 359 44 60 77 72 62 62 55 45
267 260 253 252 253 255 270 291 311 327 327 318 317 319 319 314 309 313 315 314 322 332 347 42 166 156 60 277 277 289 257 234 235 235 239 233 214 214 206 196 193 193 202 184 156 121 102 120 115 118 261 284 42 20 344 344 356 354 290 297 312 208 261 305 295 197 229 278 126 136 213 262 269 276 279 289 5 281 316 32 64 76 79 71 62 60 56 47
268 261 255 254 258 263 276 294 316 321 317 313 312 312 313 308 306 310 307 308 326 359 46 74 150 131 337 278 276 294 227 218 229 228 222 212 207 207 179 172 175 164 162 155 142 135 107 84 70 146 157 295 93 79 35 359 334 337 211 250 265 221 253 318 302 232 192 225 95 161 216 269 272 277 286 298 331 351 353 46 78 82 74 70 64 60 57 48
270 260 254 254 260 270 281 294 311 311 309 309 308 308 307 304 302 301 288 283 320 76 76 81 128 100 274 247 272 279 219 211 219 210 197 199 207 192 158 133 126 126 113 101 122 118 61 62 49 246 63 66 127 100 57 310 283 302 249 230 249 231 216 286 293 301 45 100 178 252 236 247 271 290 293 298 321 344 353 55 93 90 77 74 68 64 59 51
263 254 251 251 257 268 279 298 307 308 309 309 312 310 304 300 299 292 250 215 124 72 41 50 102 99 268 237 224 240 203 200 201 189 190 194 189 175 145 109 117 108 78 46 61 80 22 22 69 27 7 69 135 123 172 227 221 225 221 223 257 248 231 247 264 293 354 14 283 290 283 261 275 284 283 298 322 335 356 81 102 92 80 77 70 68 62 56
254 252 252 248 254 269 287 319 313 314 315 310 312 309 302 305 312 319 150 155 137 126 232 216 160 169 256 256 241 235 188 177 175 182 189 181 173 166 123 96 104 96 86 20 316 137 107 48 62 122 220 208 195 181 200 216 206 209 221 217 241 257 253 248 252 263 319 333 282 277 279 274 283 277 281 315 340 341 62 97 99 89 84 78 74 69 64 62
247 252 248 239 253 275 305 332 315 321 322 316 319 322 318 348 7 358 23 158 206 220 236 215 204 229 277 284 194 189 182 171 177 184 179 171 161 154 117 71 68 59 133 165 226 249 132 139 172 200 214 212 209 207 212 221 219 223 249 258 248 255 269 263 264 273 274 277 270 266 277 285 281 283 306 9 53 32 80 107 95 88 86 78 81 77 68 66
244 246 235 225 262 278 299 331 319 318 320 318 326 336 171 156 124 285 292 283 251 245 254 240 223 239 258 249 172 170 152 199 247 197 172 169 149 149 189 97 96 299 210 152 153 350 131 181 218 220 218 216 217 216 216 231 262 265 246 266 272 253 262 263 261 284 318 190 264 304 337 295 281 299 344 26 50 25 62 107 97 94 93 82 84 79 72 67
239 237 224 219 255 268 288 334 324 308 311 311 328 121 150 163 169 184 152 297 278 250 241 248 241 245 254 253 236 222 237 264 261 229 175 161 143 174 198 121 153 209 177 124 108 131 190 217 234 232 224 225 247 228 193 216 236 240 226 248 266 252 274 283 274 297 344 174 259 317 338 288 288 355 29 34 53 40 48 82 85 95 96 88 85 80 77 69
234 229 213 216 243 260 283 331 321 302 300 238 148 135 140 152 170 159 122 137 291 265 230 239 238 234 250 259 232 211 221 230 246 247 180 157 144 191 160 149 185 186 147 171 175 172 205 230 235 236 216 202 257 246 185 218 237 221 211 217 249 246 248 277 281 299 321 283 273 315 322 283 283 61 58 43 64 66 57 67 66 68 83 83 80 75 72 71
232 224 207 214 241 259 285 317 304 268 236 183 139 140 145 142 166 156 108 64 290 279 240 215 212 208 226 248 189 183 207 214 221 242 180 161 143 162 166 175 179 180 194 199 192 195 223 231 230 226 178 177 232 253 219 225 250 235 218 216 237 240 217 226 279 318 332 345 359 12 337 297 267 112 90 64 70 72 62 73 70 56 64 73 73 66 59 62
230 222 209 214 231 252 291 303 273 207 200 192 157 156 150 132 166 158 95 19 294 291 270 200 192 201 191 134 162 175 188 214 224 227 179 171 157 140 194 182 160 202 215 201 197 219 242 238 194 172 171 170 202 246 229 195 221 270 230 213 223 231 226 228 306 8 3 335 329 31 341 295 315 83 131 116 75 68 53 65 75 64 60 69 73 67 57 55
224 214 211 217 220 232 286 287 228 191 200 212 196 175 163 150 169 168 103 38 289 276 259 165 177 179 178 108 142 141 102 269 273 85 152 179 179 134 185 209 150 212 207 193 194 222 243 232 196 178 172 154 179 238 229 167 164 269 240 208 211 211 216 216 170 100 156 257 287 52 120 272 310 356 161 142 94 83 67 59 70 66 60 69 72 67 61 55
222 213 212 218 216 211 233 267 215 202 218 217 199 188 198 183 167 177 98 24 289 236 136 214 304 139 172 192 118 126 153 264 32 68 109 155 221 74 147 235 266 212 191 129 199 237 216 220 214 195 177 165 193 244 224 159 145 241 238 160 153 158 178 186 151 148 217 256 315 10 110 254 288 276 181 142 109 94 91 84 82 76 73 75 74 68 63 58
221 217 213 217 218 217 228 252 230 218 219 184 179 188 199 182 175 149 78 5 281 116 106 275 116 110 153 77 74 114 199 278 98 259 335 100 143 68 116 231 184 209 231 123 208 260 202 200 215 190 182 200 216 232 192 154 157 240 212 130 123 142 152 132 111 122 297 339 303 294 123 240 271 271 167 141 124 136 163 157 148 137 112 93 83 71 59 57
220 219 220 222 222 225 234 238 230 227 220 180 173 193 173 164 165 85 80 221 277 73 68 44 120 88 30 64 48 95 78 4 138 245 346 88 109 84 172 218 161 210 279 134 211 264 264 219 202 161 167 209 211 215 175 160 188 224 152 101 64 72 79 78 98 101 34 333 244 214 170 214 268 272 181 182 177 179 180 172 172 166 138 110 93 86 71 62
223 223 225 220 214 218 222 228 229 228 223 201 195 196 164 141 107 97 201 221 30 78 119 101 167 144 91 95 5 200 152 280 204 1 27 69 10 41 149 197 104 120 307 2 262 261 292 304 183 154 184 196 160 115 166 167 163 130 98 61 28 29 42 48 71 81 47 283 243 208 192 192 259 281 193 201 232 173 159 161 178 173 145 131 112 103 88 73
223 225 223 208 207 207 200 221 229 223 226 214 194 182 157 91 81 156 211 213 45 292 124 161 208 116 129 142 170 190 158 228 213 104 99 132 40 39 58 99 72 61 350 329 302 302 327 330 257 256 213 135 106 87 14 15 82 99 88 74 45 342 10 25 1 45 116 256 258 220 189 172 224 262 220 269 291 171 162 168 172 167 160 153 134 114 96 80
222 224 217 206 208 204 196 221 220 211 215 193 174 150 109 80 184 189 238 352 13 214 169 191 207 165 173 167 181 190 165 200 202 150 153 153 155 175 176 181 164 67 339 261 274 338 320 249 265 306 277 139 117 105 0 3 40 85 103 101 91 317 347 359 302 152 214 252 264 184 149 167 232 246 249 312 315 178 160 160 161 159 159 155 142 128 105 86
222 219 209 204 207 206 209 219 196 191 190 169 157 68 87 200 224 185 213 269 233 215 133 120 158 152 141 132 227 196 159 208 196 174 167 133 150 238 256 217 170 129 238 212 231 340 302 292 310 323 286 184 142 156 213 256 139 139 146 138 133 156 200 252 255 263 258 263 269 159 148 224 265 294 333 312 315 171 129 133 150 149 147 150 144 134 113 93
215 209 201 201 206 209 211 208 188 180 172 154 129 66 130 217 221 171 211 227 228 345 39 70 91 89 99 158 229 174 147 241 184 159 158 109 118 268 270 243 192 156 155 159 190 187 227 301 253 183 249 193 169 185 174 145 156 179 158 138 149 161 171 215 222 215 246 273 287 229 173 204 216 277 306 311 341 65 112 119 126 123 130 137 128 124 118 108
197 193 194 197 201 203 200 197 187 173 162 142 101 152 197 215 188 169 220 228 234 13 47 51 77 64 6 287 275 189 165 237 156 133 152 152 171 204 217 217 191 166 137 146 227 189 186 260 253 224 205 168 185 203 137 112 112 235 124 114 171 183 169 205 209 180 187 283 284 225 211 211 175 229 321 49 65 77 103 113 118 123 132 131 130 137 137 133
179 178 183 190 192 192 191 190 180 170 159 129 147 215 221 216 174 183 211 190 176 146 119 44 74 91 282 297 305 294 156 206 109 135 208 201 201 208 209 225 192 173 170 176 212 215 201 262 282 335 288 198 195 204 143 137 202 187 123 180 218 176 143 168 262 179 116 239 258 199 206 292 13 259 4 87 104 109 117 126 137 149 147 143 154 161 157 156
166 162 172 190 188 182 182 180 172 170 156 124 200 222 224 215 193 186 204 172 156 122 115 165 165 158 219 246 273 276 297 285 196 164 224 242 240 206 199 245 201 179 196 202 222 228 204 265 284 184 223 253 203 151 17 33 136 130 170 216 205 116 93 110 238 325 37 241 268 223 197 225 225 229 325 140 169 173 176 165 160 169 164 166 179 180 175 168
152 142 168 210 196 183 178 176 166 160 133 144 222 233 209 211 225 185 175 151 106 82 102 184 208 166 173 195 244 241 181 197 197 164 199 242 250 191 168 218 221 194 223 197 202 257 177 262 286 211 200 288 17 77 338 337 66 138 200 220 124 148 252 105 167 219 235 244 277 288 258 227 207 197 183 198 198 189 187 179 177 186 185 185 190 190 186 167
142 126 198 207 191 184 183 181 166 149 156 198 225 235 195 203 246 218 191 164 106 114 151 213 207 173 181 175 202 233 190 187 191 181 193 209 240 210 150 180 198 252 290 159 175 246 111 227 282 309 210 294 26 84 201 268 319 52 285 305 68 164 188 172 173 178 204 239 261 286 298 268 232 197 182 198 196 182 181 181 188 195 191 192 192 187 183 169
125 108 256 189 179 179 181 181 167 167 202 210 219 225 165 202 253 253 237 222 173 170 196 208 189 198 223 196 193 213 212 208 194 192 223 210 244 264 188 163 169 156 23 80 163 199 77 212 260 311 321 226 179 208 196 196 198 143 221 253 252 230 192 247 240 139 154 204 220 261 279 263 255 197 189 200 190 176 178 176 185 198 196 197 193 182 180 172
91 88 241 175 168 167 166 172 196 201 215 231 211 189 175 194 243 285 266 220 215 227 148 171 197 200 206 212 200 174 179 223 202 200 238 231 238 254 228 134 153 166 87 59 160 202 185 195 223 260 275 205 226 241 200 186 174 162 186 202 203 199 182 252 261 223 143 196 190 214 262 266 264 259 217 198 173 171 177 174 181 197 197 195 193 183 179 173
129 179 182 159 161 160 158 181 223 196 222 236 194 167 179 159 156 253 255 204 218 234 124 186 220 207 206 210 189 170 186 217 210 208 238 235 222 227 227 87 116 138 119 143 221 218 139 124 198 239 229 211 236 275 208 178 141 138 178 173 165 155 134 193 236 243 231 244 157 174 259 268 274 299 266 178 166 168 172 175 182 193 194 188 185 183 176 171
155 155 140 157 163 163 165 211 222 201 232 240 193 203 182 154 192 212 203 200 209 197 189 220 209 207 228 217 190 198 204 211 218 219 234 245 230 227 273 2 153 117 121 172 237 214 106 115 205 250 283 300 301 333 355 28 83 124 262 133 142 159 145 175 204 182 179 250 196 167 254 258 322 339 337 149 155 161 170 179 178 180 192 186 179 177 171 169
134 87 106 168 178 179 181 207 209 212 226 233 247 242 231 206 208 196 188 203 206 185 197 224 206 210 226 207 198 210 201 210 234 227 222 229 233 272 18 357 251 180 167 208 214 199 206 166 164 220 274 306 312 327 344 348 54 195 253 232 139 129 116 112 145 131 188 223 203 207 248 253 356 7 29 120 148 165 173 174 170 174 185 187 179 175 173 172
121 69 45 179 196 206 210 208 203 211 216 218 225 227 230 245 217 193 193 205 206 190 200 231 217 210 211 195 204 214 204 217 239 235 220 228 257 320 0 355 321 207 231 284 159 163 195 187 165 193 227 243 243 225 225 251 221 195 257 236 160 141 145 145 150 181 219 214 199 215 247 268 347 2 4 132 164 174 162 162 199 205 189 184 183 179 179 179
133 175 106 161 214 237 248 226 182 213 210 206 219 223 219 229 240 189 189 209 223 209 212 239 214 206 212 201 209 225 221 223 229 229 218 216 259 290 313 347 332 235 240 179 139 103 129 207 212 210 231 242 227 212 204 147 143 197 243 224 211 204 187 167 162 188 210 244 239 236 230 256 285 250 227 237 226 210 206 205 217 225 202 191 188 182 183 187
153 188 169 158 199 231 236 230 207 216 207 193 201 216 215 221 236 218 192 203 212 205 222 247 208 209 218 206 215 232 227 223 226 227 222 204 237 283 294 355 345 301 315 195 183 114 122 228 232 213 240 253 157 182 191 124 153 202 217 237 239 226 190 188 210 203 157 199 255 245 221 220 251 240 203 204 225 227 228 225 220 218 210 196 183 177 183 193
187 151 194 173 162 210 220 213 200 207 217 209 207 232 226 218 213 212 208 193 191 196 212 241 221 220 219 201 208 230 225 224 229 223 214 189 176 248 304 322 276 304 350 338 271 115 146 227 230 193 229 236 111 147 177 137 166 225 228 246 251 240 201 190 214 211 184 212 250 254 229 220 247 251 191 186 208 217 220 222 218 211 200 184 175 176 185 193
166 167 277 344 80 220 226 188 182 201 215 213 220 240 237 231 221 218 196 132 207 215 209 222 228 222 215 199 200 222 221 219 232 227 202 191 188 176 214 271 262 260 50 306 302 79 148 218 208 164 214 78 110 153 167 142 156 251 251 247 249 247 201 168 204 225 218 233 255 265 263 255 255 251 213 200 207 211 214 203 190 191 185 176 174 176 185 193
143 167 241 35 36 269 289 171 175 198 216 212 223 234 233 234 232 233 211 171 209 241 216 222 231 219 207 206 209 225 226 215 228 233 199 197 216 193 196 226 216 99 157 208 271 301 174 193 93 115 137 319 61 131 119 115 141 232 264 258 252 240 179 186 219 229 232 251 255 256 266 267 260 216 191 212 187 171 181 178 179 186 176 165 167 177 185 192
173 40 113 106 241 221 217 188 170 188 211 210 220 225 219 228 226 222 236 208 198 212 210 217 228 224 210 212 215 227 231 216 212 208 179 195 217 199 202 200 152 144 199 201 230 301 184 179 47 84 132 259 218 121 94 57 43 288 272 264 254 235 214 223 222 207 209 230 246 250 253 259 257 178 146 194 160 163 183 182 175 177 168 160 165 177 184 189
180 320 98 111 5 233 193 169 164 189 210 204 211 216 214 225 213 194 229 242 183 206 217 198 201 196 201 225 225 230 230 201 178 161 141 155 149 89 81 141 125 142 182 187 193 27 149 150 132 126 169 212 164 148 113 50 358 279 264 254 241 228 232 243 241 228 215 201 216 235 236 248 261 251 223 221 188 189 194 184 175 176 174 171 171 176 189 198